Regional Weather Roundup
Issued by NWS

Home | Current Version | Previous Version | Graphics & Text | Print | Product List | Glossary Off
Versions: 1 2 3 4 5 6 7 8 9 10 11 12 13 14 15 16 17 18 19 20 21 22 23 24 25 26 27 28 29 30 31 32 33 34 35 36 37 38 39 40 41 42 43 44 45 46 47 48 49 50

347
ASUS44 KLIX 230510
RWRLA
LOUISIANA WEATHER ROUNDUP
NATIONAL WEATHER SERVICE NEW ORLEANS LA
1100 PM CST MON DEC 22 2014

NOTE: "FAIR" INDICATES FEW OR NO CLOUDS BELOW 12,000 FEET WITH NO
      SIGNIFICANT WEATHER AND/OR OBSTRUCTIONS TO VISIBILITY.
      SKY/WX - SKY CONDITION AND SIGNIFICANT WEATHER.
      TMP - AIR TEMPERATURE.    DP   - DEWPOINT TEMPERATURE.
      RH  - RELATIVE HUMIDITY.  PRES - PRESSURE.
      HX  - HEAT INDEX.         WCI  - WIND CHILL INDEX.

*  THESE STATIONS ARE NOT NWS OR FAA STATIONS AND ARE NOT UNDER
   NWS QUALITY CONTROL.

LAZ040-048-061>063-065-066-069-230600-
SOUTHEAST LOUISIANA

CITY           SKY/WX    TMP DP  RH WIND       PRES   REMARKS
N.O. AUDUBON     N/A     67  67 100 MISG        N/A
N.O. INTL ARPT CLOUDY    69  66  90 S7        29.73F FOG
N.O. LAKEFRONT CLOUDY    69  65  86 SW8       29.74F FOG
N.O. DOWNTOWN* CLOUDY    70  64  83 S6        29.75S
SLIDELL        CLOUDY    68  66  93 SW3       29.74S FOG
BATON ROUGE    PTCLDY    67  64  90 SW7       29.71S
BOOTHVILLE     FOG       64  64 100 S6        29.77S VSB 1/4
BELLE CHASSE   CLOUDY    68  66  93 S7        29.74S FOG
BOGALUSA*        N/A     71  65  83 SW8       29.75S
GALLIANO*      MOCLDY    64  64  97 MISG      29.74F FOG
NEW ROADS*     CLOUDY    67  65  92 S7        29.71S
GONZALES*      CLOUDY    67  67 100 CALM      29.72S FOG
HAMMOND*       NOT AVBL
HOUMA*         CLOUDY    69  68  96 S6        29.73S FOG
PORT FOURCHON* MOCLDY    68  68 100 S9        29.78S FOG

$$

LAZ041-044-053-054-230600-
SOUTHWEST LOUISIANA

CITY           SKY/WX    TMP DP  RH WIND       PRES   REMARKS
LAKE CHARLES   CLOUDY    64  63  96 CALM      29.70R
LAFAYETTE      MOCLDY    65  64  97 S6        29.71R
PATTERSON      CLOUDY    64  64 100 S6        29.73S
SALT POINT       N/A     69  65  86 S5        29.71S
NEW IBERIA     MOCLDY    66  65  96 SW7       29.72R
CHENAULT AIRPK CLOUDY    64  62  94 SW7       29.71R

$$

LAZ027-028-230600-
CENTRAL LOUISIANA

CITY           SKY/WX    TMP DP  RH WIND       PRES   REMARKS
FORT POLK      MOCLDY    60  60  97 S3        29.68R FOG
ALEXANDRIA INT MOCLDY    60  59  96 S5        29.67R
ALEXANDRIA     CLOUDY    64  61  90 S3        29.68S

$$

LAZ001-002-230600-
NORTHWEST LOUISIANA

CITY           SKY/WX    TMP DP  RH WIND       PRES   REMARKS
SHREVEPORT     CLOUDY    57  52  83 NW9       29.66R
BARKSDALE AFB  NOT AVBL
DTN SHREVEPORT CLOUDY    56  51  84 CALM      29.66R

$$

LAZ014-016-230600-
NORTHEAST LOUISIANA

CITY           SKY/WX    TMP DP  RH WIND       PRES   REMARKS
MONROE         CLOUDY    58  58 100 S7        29.67S FOG
TALLULAH       MOCLDY    64  60  87 S3        29.68S

$$




USA.gov is the U.S. government's official web portal to all federal, state and local government web resources and services.